Hourly Data Report for April 30, 2020

MIRAMICHI RCS
NEW BRUNSWICK
Current Station Operator: ECCC - MSC

47°00'34.000" N
65°27'54.000" W
33.00 m
8100989
71744
ACQ

Download Data

Hourly Data (April 2020)
Hourly Data Report for April 30, 2020
TIME
LST
Temp Definition
°C
Dew Point Definition
°C
Rel Hum Definition
%
Precip. Amount Definition
mm

Wind Dir Definition
10's deg

Wind Spd Definition
km/h
Visibility Definition
km
Stn Press Definition
kPa
Hmdx Definition


Wind Chill Definition


Weather Definition


00:00 -2.1 -3.5 90 LegendMM   0   102.71     LegendNANA
01:00 -2.7 -4.1 90 LegendMM 24 2   102.72   -3 LegendNANA
02:00 -3.4 -4.6 91 LegendMM   0   102.69     LegendNANA
03:00 -3.8 -5.0 91 LegendMM 30 3   102.67   -5 LegendNANA
04:00 -3.9 -5.6 88 LegendMM 0 1   102.66   -4 LegendNANA
05:00 -4.5 -6.1 88 LegendMM 0 1   102.68   -5 LegendNANA
06:00 -3.4 -5.0 89 LegendMM   0   102.70     LegendNANA
07:00 0.0 -2.0 86 LegendMM 22 1   102.70   0 LegendNANA
08:00 2.7 -1.4 74 LegendMM 19 10   102.68     LegendNANA
09:00 5.1 -2.1 60 LegendMM 17 10   102.63     LegendNANA
10:00 7.6 -2.3 49 LegendMM 19 9   102.55     LegendNANA
11:00 10.0 -2.4 42 LegendMM 18 12   102.51     LegendNANA
12:00 12.4 -3.8 32 LegendMM 19 14   102.44     LegendNANA
13:00 15.4 -4.2 26 LegendMM 19 15   102.31     LegendNANA
14:00 16.6 -3.0 26 LegendMM 17 20   102.22     LegendNANA
15:00 17.1 -2.5 26 LegendMM 20 21   102.14     LegendNANA
16:00 15.9 -3.1 27 LegendMM 25 19   102.11     LegendNANA
17:00 14.4 -2.2 32 LegendMM 22 25   102.12     LegendNANA
18:00 13.1 -0.1 40 LegendMM 21 27   102.12     LegendNANA
19:00 11.8 -0.5 43 LegendMM 20 22   102.13     LegendNANA
20:00 10.9 -1.4 43 LegendMM 20 16   102.11     LegendNANA
21:00 10.2 -0.5 47 LegendMM 20 13   102.09     LegendNANA
22:00 9.6 0.1 52 LegendMM 20 16   102.08     LegendNANA
23:00 8.5 0.4 56 LegendMM 20 20   102.07     LegendNANA

Notes on Data Quality.

Legend

  • E = Estimated
  • M = Missing
  • NA = Not Available*
  • [empty] = Indicates an unobserved value
Date modified: